Tracking 17844 objects as of 26-August-2016
HD Live streaming from Space Station
objects crossing your sky now

COSMOS 778

Track COSMOS 778 now!
10-day predictions
COSMOS 778 is classified as:


NORAD ID: 8419
Int'l Code: 1975-103A
Perigee: 973.4 km
Apogee: 1,007.3 km
Inclination: 83.0 °
Period: 104.8 minutes
Semi major axis: 7361 km
RCS: 2.3884 m2 (large)
Launch date: November 4, 1975
Source: Commonwealth of Independent States (former USSR) (CIS)
Launch site: PLESETSK MISSILE AND SPACE COMPLEX (PKMTR)
Your satellite tracking list
Your tracking list is empty





NASA's NSSDC Master Catalog

Two Line Element Set (TLE):
1 08419U 75103A   16238.65943897  .00000038  00000-0  23647-4 0  9996
2 08419  82.9720  54.4654 0022980 128.5996 280.3173 13.74569919 46627
Source of the keplerian elements: AFSPC

N2YO: 678